Retour au catalogue

DELTA 1 DEB

ActifPO
NORAD 13561·DEBRIS·🇺🇸 United States

Lancé Mar 5, 1978 depuis Vandenberg Space Force Base

Loading…

Prochains Passages (prochaines 24 heures)

TLE

FraisSource: Space-Track

Époque: Sep 14, 2026, 04:18 UTC

1 13561U 78026EY  26257.17919405  .00003476  00000-0  10648-2 0  9998
2 13561  98.9912 138.4770 0120351  34.6182 115.8990 14.38312120309473

Suivez DELTA 1 DEB en temps réel avec AllMySat

Download on the App Store